Regional Weather Roundup
Issued by NWS

Home | Current Version | Previous Version | Text Only | Print | Product List | Glossary On
Versions: 1 2 3 4 5 6 7 8 9 10 11 12 13 14 15 16 17 18 19 20 21 22 23 24 25 26 27 28 29 30 31 32 33 34 35 36 37 38 39 40 41 42 43 44 45 46 47 48
000
ASUS45 KREV 200810
RWRNV
NEVADA REGIONAL WEATHER ROUNDUP
NATIONAL WEATHER SERVICE RENO NV
1200 AM PST SAT DEC 20 2014

NOTE: "FAIR" INDICATES FEW OR NO CLOUDS BELOW 12,000 FEET WITH NO
SIGNIFICANT WEATHER AND/OR OBSTRUCTIONS TO VISIBILITY.

NVZ001-003-004-200900-
WESTERN NEVADA

CITY           SKY/WX    TMP DP  RH WIND       PRES   REMARKS
RENO           CLOUDY    40  36  86 CALM      30.09F
CARSON CITY    MOCLDY    41  34  75 CALM      30.11F
MINDEN         FAIR      36  36 100 S5        30.14
SLIDE MTN        N/A     25  25 100 W29         N/A
PYRAMID LAKE     N/A     45 N/A N/A SE6         N/A
FALLON         LGT RAIN  40  37  89 SE5       30.12F
LOVELOCK       CLOUDY    35  30  82 NW6       30.11F
HAWTHORNE      PTCLDY    39  32  75 CALM      30.15F
$$

NVZ002-CAZ072-073-200900-
NORTHERN AND CENTRAL SIERRA

CITY           SKY/WX    TMP DP  RH WIND       PRES   REMARKS
S. LAKE TAHOE  MIX PCPN  36  31  82 S7        30.14F
TRUCKEE        DRIZZLE   32  32 100 SW5       30.11F
SQUAW VLY 8000 NOT AVBL
SUSANVILLE     CLOUDY    39  36  87 N5        30.09S
BLUE CANYON    FOG       39  36  89 S13       30.14F VSB 1/4
MAMMOTH LAKES  FAIR      28  25  86 CALM      30.16F
BRIDGEPORT     CLOUDY    37  26  64 CALM      30.12F
$$

NVZ030-031-036-200900-
NORTHERN NEVADA

CITY           SKY/WX    TMP DP  RH WIND       PRES   REMARKS
ELKO           PTCLDY    30  30 100 SW3       30.12F FOG
WINNEMUCCA     CLOUDY    37  33  85 S13       30.09F
WENDOVER       CLOUDY    34  28  80 W3        30.14F
$$

NVZ035-037-200900-
CENTRAL NEVADA

CITY           SKY/WX    TMP DP  RH WIND       PRES   REMARKS
ELY            CLEAR     24  22  91 S5        30.17R
EUREKA           N/A     32  28  85 S3        30.15F
$$

NVZ013-014-200900-
SOUTH CENTRAL NEVADA

CITY           SKY/WX    TMP DP  RH WIND       PRES   REMARKS
TONOPAH        CLEAR     28  25  88 N6        30.17F
$$

NVZ017-020-022-200900-
SOUTHERN NEVADA

CITY           SKY/WX    TMP DP  RH WIND       PRES   REMARKS
LAS VEGAS      MOCLDY    46  37  71 S7        30.14F
N. LAS VEGAS   PTCLDY    46  38  73 CALM      30.17F
NELLIS AFB     PTCLDY    44  38  82 NE2       30.18F
HENDERSON      PTCLDY    42  38  85 S6        30.19F
MERCURY        MOCLDY    37  34  89 NW5       30.17R
$$


USA.gov is the U.S. government's official web portal to all federal, state and local government web resources and services.